• In Belgium
  • List of Countries
  • For 7 days
  • Water Temperature
  • Satellite Maps
  • Weather Map
  • Weather Widgets
  • user-avatar
    Login

    Hourly Weather Groot-Bijgaarden

    Today, 25 April, Wednesday

    Time Temperature Precipitation Wind Pressure Humidity
    00:00 +13°C° 0 mm 4 mps 752 mmHg 87%
    01:00 +12°C° 0.1 mm 5 mps 752 mmHg 88%
    02:00 +11°C° 0.1 mm 6 mps 752 mmHg 88%
    03:00 +11°C° 0.1 mm 6 mps 752 mmHg 88%
    04:00 +11°C° 0.1 mm 6 mps 752 mmHg 87%
    05:00 +10°C° 0.1 mm 6 mps 753 mmHg 86%
    06:00 +10°C° 0.1 mm 6 mps 753 mmHg 85%
    07:00 +11°C° 0.1 mm 6 mps 753 mmHg 81%
    08:00 +11°C° 0.1 mm 6 mps 754 mmHg 78%
    09:00 +11°C° 0.1 mm 6 mps 754 mmHg 74%
    10:00 +13°C° 0.2 mm 6 mps 754 mmHg 70%
    11:00 +13°C° 0.2 mm 6 mps 754 mmHg 67%
    12:00 +14°C° 0.2 mm 6 mps 755 mmHg 63%
    13:00 +14°C° 0.2 mm 7 mps 755 mmHg 61%
    14:00 +14°C° 0.2 mm 7 mps 755 mmHg 59%
    15:00 +13°C° 0.2 mm 8 mps 755 mmHg 57%
    16:00 +12°C° 0.1 mm 7 mps 755 mmHg 61%
    17:00 +11°C° 0.1 mm 6 mps 755 mmHg 65%
    18:00 +10°C° 0.1 mm 6 mps 755 mmHg 69%
    19:00 +9°C° 0 mm 6 mps 755 mmHg 72%
    20:00 +8°C° 0 mm 6 mps 756 mmHg 75%
    21:00 +7°C° 0 mm 5 mps 756 mmHg 77%
    22:00 +7°C° 0 mm 5 mps 756 mmHg 79%
    23:00 +7°C° 0 mm 5 mps 756 mmHg 81%

    Tomorrow, 26 April, Thursday

    Time Temperature Precipitation Wind Pressure Humidity
    00:00 +7°C° 0 mm 6 mps 756 mmHg 83%
    01:00 +7°C° 0 mm 6 mps 756 mmHg 82%
    02:00 +5°C° 0 mm 6 mps 756 mmHg 82%
    03:00 +5°C° 0 mm 6 mps 757 mmHg 82%
    04:00 +5°C° 0 mm 6 mps 757 mmHg 80%
    05:00 +7°C° 0 mm 6 mps 757 mmHg 79%
    06:00 +7°C° 0 mm 6 mps 757 mmHg 78%
    07:00 +8°C° 0 mm 6 mps 758 mmHg 72%
    08:00 +9°C° 0 mm 7 mps 758 mmHg 67%
    09:00 +10°C° 0 mm 7 mps 758 mmHg 62%
    10:00 +11°C° 0.1 mm 7 mps 758 mmHg 58%
    11:00 +12°C° 0.1 mm 7 mps 758 mmHg 55%
    12:00 +14°C° 0.1 mm 7 mps 758 mmHg 52%
    13:00 +14°C° 0.1 mm 7 mps 758 mmHg 52%
    14:00 +14°C° 0.1 mm 7 mps 758 mmHg 52%
    15:00 +14°C° 0.1 mm 6 mps 758 mmHg 51%
    16:00 +13°C° 0 mm 6 mps 758 mmHg 56%
    17:00 +12°C° 0 mm 5 mps 758 mmHg 60%
    18:00 +11°C° 0 mm 4 mps 758 mmHg 65%
    19:00 +10°C° 0 mm 3 mps 758 mmHg 68%
    20:00 +9°C° 0 mm 3 mps 758 mmHg 70%
    21:00 +7°C° 0 mm 3 mps 758 mmHg 73%
    22:00 +7°C° 0 mm 3 mps 758 mmHg 75%
    23:00 +7°C° 0 mm 2 mps 757 mmHg 76%

    Day after tomorrow, 27 April, Friday

    Time Temperature Precipitation Wind Pressure Humidity
    00:00 +6°C° 0 mm 2 mps 757 mmHg 77%
    01:00 +6°C° 0 mm 2 mps 756 mmHg 76%
    02:00 +7°C° 0 mm 2 mps 756 mmHg 75%
    03:00 +7°C° 0 mm 2 mps 755 mmHg 75%
    04:00 +7°C° 0 mm 3 mps 755 mmHg 74%
    05:00 +8°C° 0 mm 3 mps 754 mmHg 74%
    06:00 +8°C° 0 mm 3 mps 754 mmHg 74%
    07:00 +10°C° 0 mm 4 mps 753 mmHg 71%
    08:00 +10°C° 0 mm 5 mps 753 mmHg 68%
    09:00 +11°C° 0 mm 6 mps 752 mmHg 64%
    10:00 +12°C° 0 mm 7 mps 752 mmHg 61%
    11:00 +15°C° 0 mm 7 mps 751 mmHg 58%
    12:00 +16°C° 0 mm 8 mps 751 mmHg 55%
    13:00 +15°C° 0.1 mm 8 mps 750 mmHg 58%
    14:00 +15°C° 0.1 mm 8 mps 750 mmHg 61%
    15:00 +15°C° 0.1 mm 9 mps 749 mmHg 63%
    16:00 +13°C° 0.1 mm 9 mps 749 mmHg 64%
    17:00 +12°C° 0.1 mm 9 mps 749 mmHg 66%
    18:00 +11°C° 0.1 mm 9 mps 749 mmHg 67%
    19:00 +10°C° 0 mm 9 mps 750 mmHg 67%
    20:00 +8°C° 0 mm 9 mps 751 mmHg 68%
    21:00 +8°C° 0 mm 9 mps 751 mmHg 68%
    22:00 +7°C° 0 mm 8 mps 752 mmHg 71%
    23:00 +8°C° 0 mm 7 mps 752 mmHg 73%

    28 April, Saturday

    Time Temperature Precipitation Wind Pressure Humidity
    00:00 +8°C° 0 mm 7 mps 753 mmHg 76%
    01:00 +7°C° 0 mm 6 mps 754 mmHg 76%
    02:00 +7°C° 0 mm 6 mps 754 mmHg 76%
    03:00 +7°C° 0 mm 5 mps 755 mmHg 76%
    04:00 +7°C° 0 mm 5 mps 755 mmHg 77%
    05:00 +7°C° 0 mm 5 mps 756 mmHg 78%
    06:00 +7°C° 0 mm 4 mps 756 mmHg 80%
    07:00 +8°C° 0 mm 4 mps 757 mmHg 75%
    08:00 +10°C° 0 mm 4 mps 757 mmHg 70%
    09:00 +11°C° 0 mm 4 mps 758 mmHg 65%
    10:00 +11°C° 0 mm 3 mps 758 mmHg 60%
    11:00 +12°C° 0 mm 3 mps 758 mmHg 56%
    12:00 +13°C° 0 mm 3 mps 758 mmHg 51%
    13:00 +13°C° 0 mm 3 mps 757 mmHg 49%
    14:00 +15°C° 0 mm 2 mps 757 mmHg 48%
    15:00 +15°C° 0 mm 2 mps 757 mmHg 46%
    16:00 +14°C° 0 mm 2 mps 757 mmHg 51%
    17:00 +12°C° 0 mm 3 mps 757 mmHg 56%
    18:00 +11°C° 0 mm 3 mps 757 mmHg 60%
    19:00 +10°C° 0 mm 3 mps 757 mmHg 62%
    20:00 +9°C° 0 mm 3 mps 757 mmHg 63%
    21:00 +8°C° 0 mm 3 mps 758 mmHg 64%
    22:00 +7°C° 0 mm 4 mps 757 mmHg 67%
    23:00 +7°C° 0 mm 4 mps 757 mmHg 69%

    29 April, Sunday

    Time Temperature Precipitation Wind Pressure Humidity
    00:00 +6°C° 0 mm 4 mps 757 mmHg 72%
    01:00 +6°C° 0 mm 4 mps 756 mmHg 72%
    02:00 +7°C° 0 mm 4 mps 756 mmHg 72%
    03:00 +7°C° 0 mm 5 mps 756 mmHg 72%
    04:00 +7°C° 0.3 mm 5 mps 755 mmHg 76%
    05:00 +7°C° 0.3 mm 6 mps 755 mmHg 79%
    06:00 +7°C° 0.3 mm 6 mps 754 mmHg 82%
    07:00 +7°C° 2.6 mm 6 mps 754 mmHg 85%
    08:00 +7°C° 2.6 mm 6 mps 754 mmHg 88%
    09:00 +7°C° 2.6 mm 6 mps 754 mmHg 91%
    10:00 +6°C° 0.3 mm 7 mps 754 mmHg 89%
    11:00 +8°C° 0.3 mm 7 mps 753 mmHg 87%
    12:00 +9°C° 0.3 mm 8 mps 753 mmHg 85%
    13:00 +10°C° 0.2 mm 7 mps 752 mmHg 84%
    14:00 +10°C° 0.2 mm 7 mps 752 mmHg 83%
    15:00 +11°C° 0.2 mm 7 mps 751 mmHg 82%
    16:00 +11°C° 0.6 mm 7 mps 751 mmHg 85%
    17:00 +11°C° 0.6 mm 7 mps 751 mmHg 87%
    18:00 +10°C° 0.6 mm 7 mps 751 mmHg 89%
    19:00 +10°C° 0.1 mm 6 mps 751 mmHg 90%
    20:00 +9°C° 0.1 mm 6 mps 751 mmHg 92%
    21:00 +9°C° 0.1 mm 6 mps 751 mmHg 93%
    22:00 +9°C° 0.1 mm 5 mps 750 mmHg 93%
    23:00 +11°C° 0.1 mm 4 mps 750 mmHg 94%

    30 April, Monday

    Time Temperature Precipitation Wind Pressure Humidity
    00:00 +11°C° 0.1 mm 4 mps 750 mmHg 94%
    01:00 +11°C° 0.8 mm 3 mps 750 mmHg 95%
    02:00 +11°C° 0.8 mm 3 mps 750 mmHg 96%
    03:00 +11°C° 0.8 mm 3 mps 749 mmHg 96%
    04:00 +11°C° 0.7 mm 4 mps 749 mmHg 96%
    05:00 +10°C° 0.7 mm 5 mps 749 mmHg 95%
    06:00 +10°C° 0.7 mm 7 mps 749 mmHg 95%
    07:00 +10°C° 0.5 mm 7 mps 749 mmHg 94%
    08:00 +11°C° 0.5 mm 7 mps 749 mmHg 92%
    09:00 +11°C° 0.5 mm 7 mps 749 mmHg 91%
    10:00 +11°C° 0.6 mm 6 mps 749 mmHg 91%
    11:00 +13°C° 0.6 mm 6 mps 749 mmHg 90%
    12:00 +13°C° 0.6 mm 6 mps 749 mmHg 90%
    13:00 +13°C° 0.3 mm 6 mps 749 mmHg 88%
    14:00 +13°C° 0.3 mm 6 mps 750 mmHg 87%
    15:00 +13°C° 0.3 mm 6 mps 750 mmHg 85%
    16:00 +13°C° 0.1 mm 5 mps 750 mmHg 85%
    17:00 +13°C° 0.1 mm 4 mps 750 mmHg 85%
    18:00 +13°C° 0.1 mm 3 mps 751 mmHg 84%
    19:00 +12°C° 0 mm 3 mps 751 mmHg 87%
    20:00 +11°C° 0 mm 3 mps 751 mmHg 89%
    21:00 +10°C° 0 mm 2 mps 752 mmHg 92%
    22:00 +9°C° 0 mm 2 mps 752 mmHg 92%
    23:00 +9°C° 0 mm 2 mps 752 mmHg 92%
    Show more